N1OTX Weather Reports


Display with metric or nautical units.
time (UTC)temp
F
wind
direction
speed
MPH
gust
MPH
rain 1hr
in
rain 24hr
in
rain mn
in
humidity
%
barometer
mb
20260504030529 36 0.0 0.0 0.00 0.00 0.00 82 1010.0
20260504030029 36 0.0 0.0 0.00 0.00 0.00 82 1010.0
20260504025552 36 0.0 0.0 0.00 0.00 0.00 81 1010.0
20260504025051 36 0.0 0.0 0.00 0.00 0.00 81 1009.9
20260504024531 37 0.0 0.0 0.00 0.00 0.00 82 1009.9
20260504024035 37 0.0 0.0 0.00 0.00 0.00 80 1009.9
20260504023530 37 0.0 0.0 0.00 0.00 0.00 80 1010.0
20260504023030 37 0.0 0.0 0.00 0.00 0.00 80 1009.8
20260504022550 37 0.0 0.0 0.00 0.00 0.00 78 1009.8
20260504022030 38 0.0 0.0 0.00 0.00 0.00 77 1009.7
20260504021530 38 0.0 0.0 0.00 0.00 0.00 76 1009.9
20260504021029 38 0.0 0.0 0.00 0.00 0.00 76 1009.8
20260504020529 38 0.0 0.0 0.00 0.00 0.00 75 1009.9
20260504020034 39 0.0 0.0 0.00 0.00 0.00 74 1009.7
20260504015529 39 0.0 0.0 0.00 0.00 0.00 74 1009.7
20260504015031 39 0.0 0.0 0.00 0.00 0.00 72 1009.7
20260504014531 39 0.0 0.0 0.00 0.00 0.00 70 1009.6
20260504014031 40 0.0 0.0 0.00 0.00 0.00 71 1009.5
20260504013531 40 0.0 0.0 0.00 0.00 0.00 70 1009.6
20260504013030 40 0.0 0.0 0.00 0.00 0.00 66 1009.6
20260504012530 41 0.0 0.0 0.00 0.00 0.00 67 1009.6
20260504012050 41 0.0 0.0 0.00 0.00 0.00 67 1009.5
20260504011530 41 0.0 0.0 0.00 0.00 0.00 66 1009.4
20260504011030 42 0.0 0.0 0.00 0.00 0.00 66 1009.4
20260504010530 42 0.0 0.0 0.00 0.00 0.00 64 1009.3
20260504010030 42 0.0 0.0 0.00 0.00 0.00 64 1009.3
20260504005529 43 0.0 0.0 0.00 0.00 0.00 62 1009.2
20260504005029 43 0.0 0.0 0.00 0.00 0.00 59 1009.1
20260504004529 43 0.0 0.0 0.00 0.00 0.00 60 1009.0
20260504004031 44 0.0 0.0 0.00 0.00 0.00 59 1009.0
20260504003531 44 0.0 0.0 0.00 0.00 0.00 57 1009.0
20260504003051 45 0.0 0.0 0.00 0.00 0.00 58 1008.9
20260504002531 45 0.0 0.0 0.00 0.00 0.00 56 1008.8
20260504002051 46 0.0 0.0 0.00 0.00 0.00 53 1008.8
20260504001530 47 0.0 0.0 0.00 0.00 0.00 49 1008.7
20260504001050 48 0.0 0.0 0.00 0.00 0.00 48 1008.7
20260504000530 49 0.0 0.0 0.00 0.00 0.00 45 1008.6
20260504000030 49 0.0 0.0 0.00 0.00 0.00 42 1008.6
20260503235530 50 203 0.0 2.0 0.00 0.00 0.00 42 1008.6
20260503235029 50 206 0.0 2.0 0.00 0.00 0.00 39 1008.5
20260503234529 51 11 1.0 4.0 0.00 0.00 0.00 38 1008.4
20260503234029 51 349 1.0 4.0 0.00 0.00 0.00 37 1008.4
20260503233549 51 349 1.0 4.0 0.00 0.00 0.00 37 1008.3
20260503233049 51 340 1.0 4.0 0.00 0.00 0.00 37 1008.2
20260503232531 51 336 2.0 7.0 0.00 0.00 0.00 38 1008.1
20260503232031 51 340 2.0 4.0 0.00 0.00 0.00 36 1008.1
20260503231531 51 324 1.0 4.0 0.00 0.00 0.00 38 1008.0
20260503231032 51 337 1.0 3.0 0.00 0.00 0.00 37 1007.9
20260503230550 51 339 2.0 7.0 0.00 0.00 0.00 36 1007.8
20260503230051 52 355 2.0 7.0 0.00 0.00 0.00 36 1007.7
20260503225530 52 1 2.0 7.0 0.00 0.00 0.00 36 1007.7
20260503225030 52 307 1.0 3.0 0.00 0.00 0.00 38 1007.6
20260503224530 52 8 2.0 6.0 0.00 0.00 0.00 36 1007.6
20260503224030 52 5 2.0 6.0 0.00 0.00 0.00 36 1007.6
20260503223529 52 341 2.0 6.0 0.00 0.00 0.00 35 1007.4
20260503223030 52 334 3.0 6.0 0.00 0.00 0.00 36 1007.3
20260503222531 52 334 2.0 6.0 0.00 0.00 0.00 36 1007.3
20260503222031 52 325 2.0 4.0 0.00 0.00 0.00 35 1007.2
20260503221531 52 352 3.0 10.0 0.00 0.00 0.00 35 1007.1
20260503221031 52 330 2.0 6.0 0.00 0.00 0.00 36 1007.1
20260503220531 52 351 2.0 6.0 0.00 0.00 0.00 35 1007.1
20260503220051 52 355 2.0 6.0 0.00 0.00 0.00 36 1007.1
20260503215530 52 355 2.0 6.0 0.00 0.00 0.00 37 1007.0
20260503215031 52 2 1.0 6.0 0.00 0.00 0.00 36 1006.9
20260503214551 52 3 2.0 9.0 0.00 0.00 0.00 36 1006.9
20260503214030 52 342 2.0 9.0 0.00 0.00 0.00 37 1006.8
20260503213529 53 334 2.0 7.0 0.00 0.00 0.00 36 1006.6
20260503213029 53 352 3.0 8.0 0.00 0.00 0.00 36 1006.7
20260503212530 53 355 3.0 7.0 0.00 0.00 0.00 37 1006.6
20260503212029 53 337 3.0 8.0 0.00 0.00 0.00 36 1006.5
20260503211529 53 338 2.0 6.0 0.00 0.00 0.00 38 1006.4
20260503211031 53 326 2.0 6.0 0.00 0.00 0.00 38 1006.4
20260503210531 53 348 2.0 6.0 0.00 0.00 0.00 37 1006.3
20260503210031 53 355 2.0 6.0 0.00 0.00 0.00 36 1006.1
20260503205530 53 345 3.0 7.0 0.00 0.00 0.00 36 1006.0
20260503205031 53 338 2.0 4.0 0.00 0.00 0.00 37 1006.0
20260503204530 53 7 1.0 9.0 0.00 0.00 0.00 37 1005.9
20260503204111 53 360 4.0 9.0 0.00 0.00 0.00 35 1005.9
20260503203530 53 353 4.0 11.0 0.00 0.00 0.00 34 1005.9
20260503203115 53 348 3.0 7.0 0.00 0.00 0.00 36 1005.8
20260503202530 53 357 2.0 8.0 0.00 0.00 0.00 38 1005.9
20260503202030 53 359 3.0 8.0 0.00 0.00 0.00 36 1005.7
20260503201529 53 349 2.0 4.0 0.00 0.00 0.00 37 1005.7
20260503201029 53 297 2.0 6.0 0.00 0.00 0.00 39 1005.8
20260503200529 53 6 2.0 4.0 0.00 0.00 0.00 40 1005.7
20260503200029 53 348 1.0 6.0 0.00 0.00 0.00 40 1005.8
20260503195529 53 349 2.0 7.0 0.00 0.00 0.00 40 1005.8
20260503195031 53 359 2.0 4.0 0.00 0.00 0.00 42 1005.8
20260503194531 53 360 2.0 7.0 0.00 0.00 0.00 40 1005.9
20260503194030 53 355 2.0 4.0 0.00 0.00 0.00 42 1005.9
20260503193530 53 337 2.0 4.0 0.00 0.00 0.00 43 1005.9
20260503193030 52 338 2.0 6.0 0.00 0.00 0.00 42 1005.8
20260503192551 53 350 4.0 9.0 0.00 0.00 0.00 42 1005.9
20260503192030 53 318 2.0 6.0 0.00 0.00 0.00 42 1005.9
20260503191530 54 353 3.0 8.0 0.00 0.00 0.00 42 1005.9
20260503191030 54 4 3.0 7.0 0.00 0.00 0.00 42 1005.9
20260503190530 54 356 2.0 6.0 0.00 0.00 0.00 43 1005.8
20260503190050 53 350 2.0 6.0 0.00 0.00 0.00 44 1005.9
20260503185530 53 337 3.0 9.0 0.00 0.00 0.00 43 1005.9
20260503185030 53 355 3.0 9.0 0.00 0.00 0.00 43 1006.0
20260503184529 53 330 4.0 8.0 0.00 0.00 0.00 44 1005.9
20260503184029 53 5 4.0 9.0 0.00 0.00 0.00 43 1005.9
20260503183529 53 354 2.0 6.0 0.00 0.00 0.00 45 1005.9
20260503183049 52 350 2.0 6.0 0.00 0.00 0.00 47 1006.0
20260503182529 52 356 3.0 7.0 0.00 0.00 0.00 46 1006.0
20260503182031 52 3 3.0 8.0 0.00 0.00 0.00 47 1006.2
20260503181532 52 340 2.0 7.0 0.00 0.00 0.00 49 1006.1
20260503181031 51 1 3.0 8.0 0.00 0.00 0.00 50 1006.1
20260503180530 51 346 2.0 6.0 0.00 0.00 0.00 49 1006.1
20260503180030 51 356 2.0 7.0 0.00 0.00 0.00 50 1006.1
20260503175610 51 2 4.0 9.0 0.00 0.00 0.00 49 1006.1
20260503175030 52 335 4.0 10.0 0.00 0.00 0.00 49 1006.0
20260503174530 52 357 4.0 11.0 0.00 0.00 0.00 48 1006.0
20260503174030 52 0 2.0 7.0 0.00 0.00 0.00 48 1006.0
20260503173529 52 353 4.0 9.0 0.00 0.00 0.00 48 1006.0
20260503173034 52 353 4.0 9.0 0.00 0.00 0.00 47 1006.1
20260503172529 52 357 4.0 8.0 0.00 0.00 0.00 47 1006.0
20260503172029 52 330 3.0 8.0 0.00 0.00 0.00 48 1005.9
20260503171529 51 359 4.0 9.0 0.00 0.00 0.00 47 1006.0
20260503171029 51 18 6.0 14.0 0.00 0.00 0.00 46 1006.0
20260503170531 51 4 3.0 10.0 0.00 0.00 0.00 47 1006.0
20260503150549 47 359 3.0 9.0 0.00 0.00 0.00 71 1006.1
20260503150109 47 329 3.0 7.0 0.00 0.00 0.00 73 1006.0
20260503140110 44 343 2.0 9.0 0.00 0.00 0.00 81 1006.3
20260503131050 44 345 2.0 6.0 0.00 0.03 0.00 82 1006.6
20260503130530 44 2 2.0 6.0 0.00 0.04 0.00 81 1006.6
20260503110531 42 337 1.0 3.0 0.00 0.06 0.00 80 1007.0
20260503100109 43 310 0.0 2.0 0.00 0.06 0.00 81 1007.1
20260503081030 45 9 1.0 2.0 0.00 0.06 0.00 80 1008.0
20260503080529 45 4 1.0 2.0 0.00 0.06 0.00 81 1008.3
20260503072530 45 356 0.0 2.0 0.00 0.06 0.00 84 1008.3
20260503072030 45 356 0.0 2.0 0.00 0.06 0.00 84 1008.3
20260503071530 45 0.0 0.0 0.00 0.06 0.00 84 1008.5
20260503071030 45 0.0 0.0 0.00 0.06 0.00 84 1008.5
20260503070550 45 0.0 0.0 0.00 0.06 0.00 83 1008.4
20260503055030 46 0.0 0.0 0.00 0.06 0.00 83 1009.5
20260503054530 46 0.0 0.0 0.00 0.06 0.00 83 1009.4
20260503054030 47 352 0.0 2.0 0.00 0.06 0.00 82 1009.3
20260503053529 47 0.0 0.0 0.00 0.06 0.00 82 1009.3
20260503053029 47 0.0 1.0 0.00 0.06 0.00 81 1009.4
20260503052529 47 352 0.0 3.0 0.00 0.06 0.00 81 1009.3
20260503052029 47 349 1.0 3.0 0.00 0.06 0.00 80 1009.4
20260503051529 47 347 1.0 2.0 0.00 0.06 0.00 80 1009.5
20260503051029 47 335 1.0 2.0 0.00 0.06 0.00 80 1009.7
20260503050528 47 357 1.0 3.0 0.00 0.06 0.00 80 1009.7
20260503050031 47 351 0.0 2.0 0.00 0.06 0.00 79 1009.8
20260503045530 48 358 1.0 3.0 0.00 0.06 0.00 79 1009.8
20260503045030 48 3 1.0 2.0 0.00 0.06 0.00 79 1009.7
20260503044530 48 10 0.0 2.0 0.00 0.06 0.00 79 1009.9
20260503044030 48 10 0.0 2.0 0.00 0.06 0.00 79 1009.8
20260503043550 48 10 1.0 2.0 0.00 0.06 0.00 80 1010.0
20260503043050 48 12 0.0 1.0 0.00 0.06 0.00 81 1010.2
20260503042529 48 12 0.0 2.0 0.00 0.06 0.00 81 1010.2
20260503042029 48 356 2.0 3.0 0.00 0.06 0.00 81 1010.2
20260503041611 48 332 1.0 3.0 0.00 0.06 0.00 82 1010.3
20260503041029 48 199 0.0 1.0 0.00 0.06 0.00 84 1010.4
20260503040549 48 199 0.0 1.0 0.00 0.06 0.00 85 1010.3
20260503040031 48 199 0.0 1.0 0.00 0.06 0.00 86 1010.2
20260503035530 48 199 0.0 1.0 0.00 0.06 0.06 87 1010.2
20260503035031 48 199 0.0 1.0 0.00 0.06 0.06 87 1010.2
20260503034530 48 198 0.0 1.0 0.00 0.06 0.06 88 1010.3
20260503034111 49 0.0 0.0 0.00 0.06 0.06 88 1010.3
20260503033530 48 0.0 0.0 0.00 0.06 0.06 89 1010.3
20260503033030 48 0.0 0.0 0.00 0.06 0.06 89 1010.4
20260503032610 49 0.0 0.0 0.00 0.06 0.06 89 1010.2
20260503032050 49 199 0.0 1.0 0.00 0.06 0.06 89 1010.4
20260503031529 49 0.0 0.0 0.00 0.06 0.06 89 1010.4
20260503031029 49 0.0 0.0 0.00 0.06 0.06 89 1010.4